Orange, MA

10:18 PM EST on December 07, 2019 (GMT -0500)
Orange Municipal

Weather History for KORE - October, 2019

Change the Weather History Date:

Thursday, October 10, 2019

  Actual Average Record
Temperature  
Mean Temperature 54 °F -  
Max Temperature 61 °F 60 °F 84 °F (2018)
Min Temperature 48 °F 36 °F 28 °F (2000)
Degree Days  
Heating Degree Days 11    
Growing Degree Days 4 (Base 50)    
Moisture  
Dew Point 37 °F    
Average Humidity 52    
Maximum Humidity 71    
Minimum Humidity 39    
Precipitation  
Precipitation 0.00 in - - ()
Sea Level Pressure  
Sea Level Pressure 30.31 in    
Wind  
Wind Speed 9 mph ()    
Max Wind Speed 16 mph    
Max Gust Speed 28 mph    
Visibility 10.0 miles    
Events      
Averages and records for this station are not official NWS values.
T = Trace of Precipitation, MM = Missing Value Source: Averaged Metar Reports

Daily Weather History Graph

Daily Weather History Graph

Search for Another Location

Airport or City:

Astronomy

Oct. 10, 2019 Rise Set
Actual Time 6:56 AM EDT 6:15 PM EDT
Civil Twilight 6:27 AM EDT 6:43 PM EDT
Nautical Twilight 5:55 AM EDT 7:16 PM EDT
Astronomical Twilight 5:22 AM EDT 7:48 PM EDT
Moon 5:21 PM EDT (10/10) 3:30 AM EDT (10/10)
Length of Visible Light 12h 15m
Length of Day
11h 19m
Waxing Gibbous, 91% of the Moon is Illuminated
Oct 10
Waxing Gibbous
Oct 13
Full
Oct 21
Last Quarter
Oct 27
New
Nov 4
First Quarter

Hourly Weather History & Observations

Time (EDT) Temp. Dew Point Humidity Pressure Visibility Wind Dir Wind Speed Gust Speed Precip Events Conditions
12:52 AM 52.0 °F 43.0 °F 71% 30.34 in 10.0 mi NNW 6.9 mph - N/A   Overcast
1:52 AM 53.1 °F 42.1 °F 66% 30.33 in 10.0 mi NNW 8.1 mph - N/A   Overcast
2:52 AM 53.1 °F 41.0 °F 64% 30.32 in 10.0 mi NNW 6.9 mph - N/A   Overcast
3:52 AM 53.1 °F 41.0 °F 64% 30.32 in 10.0 mi North 11.5 mph - N/A   Mostly Cloudy
4:52 AM 52.0 °F 39.9 °F 63% 30.33 in 10.0 mi North 9.2 mph - N/A   Overcast
6:52 AM 50.0 °F 39.0 °F 66% 30.35 in 10.0 mi North 10.4 mph - N/A   Partly Cloudy
7:52 AM 48.9 °F 39.0 °F 69% 30.36 in 10.0 mi North 6.9 mph - N/A   Clear
8:52 AM 51.1 °F 39.9 °F 66% 30.36 in 10.0 mi North 9.2 mph - N/A   Clear
9:52 AM 55.9 °F 39.9 °F 55% 30.34 in 10.0 mi NNE 11.5 mph 21.9 mph N/A   Clear
10:52 AM 55.0 °F 37.0 °F 51% 30.34 in 10.0 mi NE 16.1 mph 27.6 mph N/A   Clear
11:52 AM 57.0 °F 37.9 °F 49% 30.33 in 10.0 mi North 11.5 mph 21.9 mph N/A   Clear
12:52 PM 60.1 °F 36.0 °F 41% 30.31 in 10.0 mi NNE 12.7 mph 23.0 mph N/A   Clear
1:52 PM 59.0 °F 35.1 °F 41% 30.30 in 10.0 mi NNE 15.0 mph 23.0 mph N/A   Scattered Clouds
2:52 PM 60.1 °F 35.1 °F 39% 30.29 in 10.0 mi NNE 11.5 mph - N/A   Mostly Cloudy
3:52 PM 60.1 °F 35.1 °F 39% 30.27 in 10.0 mi North 11.5 mph - N/A   Overcast
4:52 PM 59.0 °F 34.0 °F 39% 30.28 in 10.0 mi NNE 10.4 mph 23.0 mph N/A   Mostly Cloudy
5:52 PM 57.9 °F 34.0 °F 41% 30.30 in 10.0 mi North 9.2 mph - N/A   Mostly Cloudy
6:52 PM 57.0 °F 34.0 °F 42% 30.30 in 10.0 mi North 6.9 mph - N/A   Clear
7:52 PM 55.9 °F 35.1 °F 45% 30.29 in 10.0 mi North 8.1 mph - N/A   Clear
8:52 PM 55.9 °F 34.0 °F 44% 30.28 in 10.0 mi NNE 8.1 mph - N/A   Clear
9:52 PM 55.9 °F 34.0 °F 44% 30.29 in 10.0 mi NNE 13.8 mph 21.9 mph N/A   Clear
10:52 PM 55.0 °F 35.1 °F 47% 30.28 in 10.0 mi NNE 12.7 mph - N/A   Clear
11:52 PM 55.0 °F 35.1 °F 47% 30.28 in 10.0 mi NNE 11.5 mph 17.3 mph N/A   Clear